Orbital Elements at Epoch 2459000.5 (2020-May-31.0) TDB
Reference: JPL 22 (heliocentric ecliptic J2000)
Element | Value | Uncertainty (1-sigma) | Units |
e | .1076958446670049 | 4.6436e-08 | |
a | 2.712072576555089 | 1.4294e-08 | au |
q | 2.419993629624768 | 1.3247e-07 | au |
i | 11.96620836808433 | 5.7815e-06 | deg |
node | 12.84477126204716 | 1.6796e-05 | deg |
peri | 32.19156439568578 | 3.3051e-05 | deg |
M | 294.4645410024434 | 2.6415e-05 | deg |
tp | 2459297.477968813232 (2021-Mar-23.97796881) | 0.0001197 | TDB |
period | 1631.362172602613 4.47 | 1.2897e-05 3.531e-08 | d yr |
n | .2206744805328358 | 1.7446e-09 | deg/d |
Q | 3.004151523485409 | 1.5833e-08 | au |
|
| | Orbit Determination Parameters
Additional Information
|